Weather in Valemount

Canada     52°49′36″N   119°16′36″W
temp.,
°C
wind,
m/s
gust,
m/s
humid.,
%
clouds,
%
prec.,
mm/h
press.,
hPa
HPBL,
m
4 august, wed
wed423:00+13nw115283 0.0 101711
02:00+11wnw005245 0.0 101711
05:00+10ssw00567 0.0 101810
08:00+16se11445 0.0 1016201
11:00+25sse12295 0.0 1014952
14:00+27ssw232138 0.0 10123572
17:00+27ssw22205 0.0 10103333
20:00+20ssw11415 0.0 101111
5 august, thu
thu523:00+15s114918 0.0 101313
02:00+13sse115416 0.0 101311
05:00+11sse115911 0.0 101310
08:00+17se1244100 0.0 1012186
11:00+25sse24270 0.0 10071540
14:00+27ssw36185 0.0 10063354
17:00+27ssw46198 0.0 10043179
20:00+20s223984 0.0 100419
6 august, fri
fri623:00+14s114094 0.0 100513
02:00+11nw115181 0.0 100622
05:00+11s1154100 0.0 100712
08:00+13w1170100 0.4 1007100
11:00+14se2473100 1.6 1007509
14:00+13sse2387100 3.3 1007177
17:00+11nnw1294100 10.1 100888
20:00+11s1185100 2.6 100831
7 august, sat
sat723:00+7s22949 3.2 100928
02:00+7s119484 0.4 100922
05:00+6s229435 0.8 100831
08:00+8wsw1294100 2.4 1008183
11:00+8ssw1293100 9.6 1009307
14:00+9nw228876 0.8 1008310
17:00+12s127174 1.9 1006580
20:00+8se239451 1.1 100788
8 august, sun
sun823:00+6sse129581 1.4 100831
02:00+6nne019599 0.1 100925
05:00+6n1297100 0.1 100983
08:00+7nnw2395100 0.1 1011203
11:00+10n237549 0.3 1011691
14:00+16nnw224295 0.2 10101911
17:00+15wnw224274 0.3 10101790
20:00+12nw226054 0.0 101241